Weather History for Reading, PA

Change the Weather History Date:

Friday, February 15, 2013

  Actual Average Record
Temperature  
Mean Temperature 42 °F 32 °F  
Max Temperature 54 °F 41 °F 76 °F (1949)
Min Temperature 29 °F 23 °F -2 °F (1899)
Degree Days  
Heating Degree Days 23 33  
Month to date heating degree days 508 513  
Since 1 July heating degree days 3307 3638  
Cooling Degree Days 0 0  
Month to date cooling degree days 0 0  
Year to date cooling degree days 0 0  
Moisture  
Dew Point 31 °F    
Average Humidity 67    
Maximum Humidity 92    
Minimum Humidity 41    
Precipitation  
Precipitation 0.17 in 0.09 in 1.15 in (1984)
Month to date precipitation 0.79 1.30  
Year to date precipitation 4.31 4.35  
Sea Level Pressure  
Sea Level Pressure 29.99 in    
Wind  
Wind Speed 6 mph (West)    
Max Wind Speed 21 mph    
Max Gust Speed 25 mph    
Visibility 7 miles    
Events Rain , Snow    
T = Trace of Precipitation, MM = Missing Value Source: NWS Daily Summary

Daily Weather History Graph

Daily Weather History Graph

Search for Another Location

Airport:

Trip Planner

Search our weather history database for the weather conditions in past years. The results will help you decide how hot, cold, wet, or windy it might be!

Date:

Astronomy

Feb. 15, 2013 Rise Set
Actual Time 6:56 AM EST 5:39 PM EST
Civil Twilight 6:29 AM EST 6:07 PM EST
Nautical Twilight 5:57 AM EST 6:39 PM EST
Astronomical Twilight 5:25 AM EST 7:10 PM EST
Moon 9:30 AM EST (2/15) 11:39 PM EST (2/15)
Length of Visible Light 11h 38m
Length of Day
10h 42m
Waxing Crescent, 30% of the Moon is Illuminated
Feb 15
Waxing Crescent
Feb 17
First Quarter
Feb 25
Full
Mar 4
Last Quarter
Mar 11
New

Hourly Weather History & Observations

Time (EST) Temp. Windchill Dew Point Humidity Pressure Visibility Wind Dir Wind Speed Gust Speed Precip Events Conditions
12:54 AM 37.9 °F 33.5 °F 27.0 °F 65% 30.00 in 10.0 mi SW 5.8 mph - N/A   Overcast
1:54 AM 37.9 °F 34.4 °F 28.0 °F 68% 29.99 in 10.0 mi South 4.6 mph - N/A   Overcast
2:54 AM 37.9 °F 35.5 °F 27.0 °F 65% 29.99 in 10.0 mi SSW 3.5 mph - N/A   Partly Cloudy
3:54 AM 35.1 °F - 27.0 °F 72% 29.99 in 10.0 mi Calm Calm - N/A   Clear
4:54 AM 33.1 °F - 26.1 °F 75% 29.99 in 10.0 mi Calm Calm - N/A   Clear
5:54 AM 36.0 °F 33.3 °F 30.0 °F 79% 29.99 in 10.0 mi South 3.5 mph - N/A   Scattered Clouds
6:54 AM 32.0 °F 28.7 °F 28.0 °F 85% 30.01 in 8.0 mi SSW 3.5 mph - N/A   Partly Cloudy
7:54 AM 32.0 °F - 28.9 °F 88% 30.03 in 6.0 mi Calm Calm - N/A   Clear
8:54 AM 39.0 °F - 30.9 °F 73% 30.04 in 8.0 mi Calm Calm - N/A   Clear
9:54 AM 43.0 °F - 30.9 °F 62% 30.03 in 10.0 mi Calm Calm - N/A   Clear
10:54 AM 48.0 °F - 33.1 °F 56% 30.01 in 10.0 mi Calm Calm - N/A   Clear
12:54 PM 51.1 °F - 33.1 °F 50% 29.96 in 10.0 mi WNW 12.7 mph - N/A   Clear
1:54 PM 53.1 °F - 32.0 °F 45% 29.95 in 10.0 mi West 11.5 mph - N/A   Clear
2:54 PM 52.0 °F - 30.9 °F 45% 29.95 in 10.0 mi WNW 10.4 mph - N/A   Clear
3:54 PM 51.1 °F - 28.0 °F 41% 29.95 in 10.0 mi WNW 13.8 mph - N/A   Partly Cloudy
4:54 PM 48.9 °F - 26.1 °F 41% 29.94 in 10.0 mi WNW 8.1 mph - N/A   Overcast
5:54 PM 46.9 °F - 28.0 °F 48% 29.95 in 10.0 mi North 9.2 mph - N/A   Overcast
6:54 PM 45.0 °F 38.5 °F 28.0 °F 52% 29.96 in 10.0 mi WNW 13.8 mph - N/A   Overcast
7:54 PM 41.0 °F 35.2 °F 33.1 °F 73% 29.99 in 10.0 mi NW 9.2 mph - 0.00 in Rain Light Rain
8:20 PM 39.2 °F 33.0 °F 35.6 °F 87% 29.96 in 10.0 mi NW 9.2 mph - 0.00 in Rain Light Rain
8:54 PM 39.0 °F 31.8 °F 35.1 °F 86% 30.00 in 6.0 mi NW 11.5 mph - 0.03 in Rain Rain
9:35 PM 37.4 °F 31.4 °F 33.8 °F 87% 29.99 in 8.0 mi WNW 8.1 mph - 0.03 in Rain Light Rain
9:54 PM 36.0 °F 31.1 °F 33.1 °F 89% 30.02 in 5.0 mi WNW 5.8 mph - 0.05 in Rain Rain
10:13 PM 33.8 °F 30.8 °F 33.8 °F 100% 30.00 in 2.0 mi WSW 3.5 mph - 0.02 in Snow Light Snow
10:28 PM 33.8 °F - 33.8 °F 100% 30.00 in 1.5 mi Calm Calm - 0.03 in Snow Light Snow
10:36 PM 33.8 °F - 33.8 °F 100% 30.00 in 1.2 mi Calm Calm - 0.04 in Snow Light Snow
10:47 PM 33.8 °F 30.8 °F 33.8 °F 100% 30.00 in 1.5 mi West 3.5 mph - 0.06 in Snow Light Snow
10:54 PM 34.0 °F - 32.0 °F 92% 30.02 in 1.8 mi Calm Calm - 0.06 in Snow Light Snow
11:04 PM 33.8 °F - 33.8 °F 100% 29.99 in 2.0 mi Calm Calm - 0.01 in Snow Light Snow
11:13 PM 33.8 °F - 33.8 °F 100% 29.99 in 1.8 mi Calm Calm - 0.02 in Snow Light Snow
11:22 PM 33.8 °F - 32.0 °F 93% 30.00 in 1.5 mi Calm Calm - 0.02 in Snow Light Snow
11:50 PM 33.8 °F - 32.0 °F 93% 29.99 in 2.0 mi Calm Calm - 0.03 in Snow Light Snow
11:54 PM 34.0 °F - 32.0 °F 92% 30.01 in 2.5 mi Calm Calm - 0.03 in Snow Light Snow